Гроссевичи

Россия / Хабаровский край     47°59′08″N   139°31′55″E
темп.,
°C
ветер,
м/с
пор.,
м/с
влажн.,
%
обл.,
%
осадки,
мм/ч
давл.,
гПа
погр.,
м
18 апреля, вс
вс1801:00+2ссз119569 0.0 101330
04:00+1ссз229194 0.0 101123
07:00+1св2392100 0.0 101281
10:00+6всв366745 0.0 1010535
13:00+7всв61061100 0.0 1007739
16:00+6всв71267100 0.0 1005781
19:00+4ссв51290100 0.3 1003838
22:00+4с41195100 1.6 1002762
19 апреля, пн
пн1901:00+4ссз51293100 0.4 999730
04:00+4с5138784 0.6 995878
07:00+5с4127797 0.1 9931027
10:00+7с4116197 0.3 9921342
13:00+8ссз2863100 0.4 9921466
16:00+5ююз1679100 1.8 993686
19:00+1ююв3593100 0.1 996196
22:00+1ююз3497100 0.1 996173
20 апреля, вт
вт2001:000ю1198100 0.0 99457
04:00+2юз38834 0.0 993287
07:00+1сз3661100 0.0 995422
10:00+2зсз812350 0.0 9961453
13:00+4зсз7932100 0.0 9961880
16:00+5ссз5842100 0.0 9971602
19:00+4ссз31156100 0.1 10011317
22:00+1зсз2366100 0.1 100593
21 апреля, ср
ср2101:000сз3471100 0.0 100664
04:000сз237295 0.0 1008117
07:00+2сз156487 0.0 1010438
10:00+8ссз5123976 0.0 10101522
13:00+8св2748100 0.0 10111074
16:00+5в3867100 0.1 10131035
19:00+5св5127361 0.9 10161253
22:00+2всв239395 1.0 1018101
22 апреля, чт
чт2201:00+1всв139565 0.1 1021111
04:00+1ссз118893 0.1 102328
07:00+4с2774100 0.0 1026508
10:00+6св3763100 0.0 10271158
13:00+7в466347 0.0 1028793
16:00+5в467337 0.0 1028386
19:00+3в23818 0.0 1029194
22:00+1зсз119310 0.0 103011